Location: Unspecified
(0.0000°N, 0.0000°E)
Time: 09:04:57
(UTC+02:00)

NATO 3D Rocket - Visible Passes

Search period start: 21 October 2014 00:00
Search period end: 30 October 2014 23:00
Orbit: 670 x 2297 km, 21.5° (Epoch: 15 October)

Date Brightness Start Highest point End Pass type
(mag) Time Alt. Az. Time Alt. Az. Time Alt. Az.
21 Oct 4.9 05:55:17 22° NNE 05:55:17 22° NNE 05:57:43 10° NE visible
21 Oct 6.9 20:24:47 10° WSW 20:35:41 28° SSW 20:44:46 10° SE visible
21 Oct 6.5 22:35:21 10° SW 22:42:55 20° S 22:43:51 20° S visible
22 Oct 5.3 06:57:56 10° NW 07:00:15 13° NNW 07:02:42 10° NNE visible
22 Oct 6.7 21:35:15 10° SW 21:44:23 23° S 21:50:28 14° SE visible
22 Oct 7.0 23:43:50 10° SW 23:46:02 15° SSW 23:46:02 15° SSW visible
23 Oct 5.3 06:04:42 15° N 06:04:42 15° N 06:06:15 10° NNE visible
23 Oct 6.9 20:35:03 10° WSW 20:45:33 26° S 20:54:25 10° SE visible
23 Oct 6.5 22:44:31 10° SW 22:52:37 23° S 22:52:37 23° S visible
24 Oct 6.5 21:44:51 10° SW 21:54:28 24° S 21:59:11 18° SE visible
24 Oct 7.0 23:52:22 10° SW 23:54:44 16° SW 23:54:44 16° SW visible
25 Oct 6.9 20:45:01 10° SW 20:55:34 26° S 21:04:30 10° SE visible
25 Oct 6.4 22:53:18 10° SW 23:01:16 28° S 23:01:16 28° S visible
26 Oct 7.0 18:45:14 10° WSW 18:56:24 27° S 19:06:29 10° SE visible
26 Oct 6.3 20:53:58 10° SW 21:04:29 28° S 21:07:48 25° SSE visible
26 Oct 7.0 23:00:52 10° SW 23:03:20 17° SW 23:03:20 17° SW visible
27 Oct 6.8 19:54:31 10° SW 20:05:35 28° S 20:14:18 12° SE visible
27 Oct 6.3 22:01:52 10° SW 22:09:51 33° SSW 22:09:51 33° SSW visible
28 Oct 7.0 18:55:07 10° SW 19:06:24 28° S 19:16:38 10° SE visible
28 Oct 6.1 21:02:44 10° SW 21:14:22 35° SSE 21:16:20 33° SSE visible
28 Oct 7.1 23:09:25 10° WSW 23:11:53 18° SW 23:11:53 18° SW visible
29 Oct 6.5 20:03:35 10° SW 20:15:30 33° S 20:22:50 18° ESE visible
29 Oct 6.2 22:10:23 10° SW 22:18:22 38° SSW 22:18:22 38° SSW visible
30 Oct 6.9 19:04:33 10° SW 19:16:20 31° S 19:27:02 10° ESE visible
30 Oct 5.8 21:11:20 10° SW 21:24:01 46° SSE 21:24:51 45° SSE visible
